Location: Berkeley
(37.8716°N, 122.2727°W)
Time: 23:56:08
(UTC-07:00)

ARIANE 6 FM1 Upper Stage - Pass Details

Date: 10 May 2026
Orbit: 528 x 599 km, 62.0° (Epoch: 10 June)

Event Time Altitude Azimuth Distance (km) Brightness Sun altitude
Rises 20:47:49 0° 316° (NW) 2,667 7.9 -7.8°
Reaches altitude 10° 20:50:08 10° 307° (NW) 1,773 6.9 -8.2°
Maximum altitude 20:53:44 33° 242° (WSW) 895 4.0 -8.8°
Drops below altitude 10° 20:57:20 10° 177° (S) 1,773 4.9 -9.4°
Enters shadow 20:58:54 - 170° (S) 2,370 5.5 -9.7°
